Location: Ammareddip?lem
(16.9681°N, 80.4999°E)
Time: 07:51:55
(UTC+00:00)

Envisat - Pass Details

Date: 27 October 2021
Orbit: 764 x 766 km, 98.2° (Epoch: 30 November)

Event Time Altitude Azimuth Distance (km) Brightness Sun altitude
Rises 22:37:04 0° 34° (NNE) 3,222 6.6 -28.5°
Reaches altitude 10° 22:39:53 10° 49° (NE) 2,295 6.0 -27.8°
Maximum altitude 22:43:43 22° 99° (E) 1,631 5.4 -26.9°
Drops below altitude 10° 22:47:32 10° 148° (SSE) 2,291 5.9 -26.0°
Sets 22:50:19 0° 163° (SSE) 3,215 6.5 -25.4°
